Terminal Aerodrome Forecast
Issued by NWS

Home | Current Version | Previous Version | Text Only | Print | Product List | Glossary On
Versions: 1 2 3 4 5 6 7 8 9 10 11 12 13 14 15 16 17 18 19 20 21 22 23 24 25 26
000
FTUS45 KRIW 262300
TAFPNA
TAF
KPNA 262320Z 2700/2724 VRB10G18KT P6SM VCTS SCT030 BKN050CB
     FM270200 VRB05KT P6SM VCSH SCT040 BKN060
     FM270700 29005KT P6SM VCFG FEW004 SCT070
     FM271600 VRB05KT P6SM BKN070 OVC100
     FM272000 VRB10G16KT P6SM VCTS SCT040CB BKN070CB
      AMD LTD TO CLD VIS AND WIND=

USA.gov is the U.S. government's official web portal to all federal, state and local government web resources and services.